Miscellaneous Local Product
Issued by NWS Hastings, NE

Home | Current Version | Previous Version | Graphics & Text | Print | Product List | Glossary On
Versions: 1 2 3 4 5 6 7 8 9 10 11 12 13 14 15 16 17 18 19 20 21 22 23 24 25 26 27 28 29 30 31 32 33 34 35 36 37 38 39 40 41 42 43 44 45 46 47 48 49 50
000
AXUS43 KGID 260002
MISGRI

GID CWA HOURLY WEATHER ROUNDUP
NATIONAL WEATHER SERVICE HASTINGS NE
700 PM CDT MON JUL 25 2016

NOTE: "FAIR" INDICATES FEW OR NO CLOUDS BELOW 12,000 FEET WITH NO
SIGNIFICANT WEATHER AND/OR OBSTRUCTIONS TO VISIBILITY.

...SOUTH CENTRAL NEBRASKA...

CITY           SKY/WX    TMP DP  RH WIND       PRES   REMARKS
GRAND ISLAND   SUNNY     84  62  47 E9        30.07S
HASTINGS       SUNNY     84  57  39 E10       30.07R
KEARNEY        SUNNY     84  63  48 E9        30.07S
ORD            SUNNY     85  61  44 S7        30.04F
YORK           SUNNY     82  64  54 CALM      30.06S
AURORA         SUNNY     83  64  52 E7        30.06S
LEXINGTON      SUNNY     84  67  54 SE10      30.06S
HOLDREGE       SUNNY     84  63  48 SE7       30.06S
HEBRON         SUNNY     86  55  35 E10       30.04S

...NEBRASKA PANHANDLE...

CITY           SKY/WX    TMP DP  RH WIND       PRES   REMARKS
CHADRON        SUNNY     93  56  28 S16       29.99S HX  91
ALLIANCE       SUNNY     86  61  42 S18G25    30.05F
SCOTTSBLUFF    SUNNY     93  54  26 SE15      30.02F HX  91
SIDNEY         SUNNY     87  61  41 S20G31    30.11F

...WESTERN AND NORTH CENTRAL NEBRASKA...

CITY           SKY/WX    TMP DP  RH WIND       PRES   REMARKS
VALENTINE      SUNNY     88  57  34 S15       30.04F
AINSWORTH      SUNNY     84  58  39 S15       30.07S
ONEILL         SUNNY     87  48  25 SE10      30.06F
BROKEN BOW     SUNNY     83  65  54 SE12      30.07F
IMPERIAL       SUNNY     87  58  37 S15       30.06F
NORTH PLATTE   SUNNY     84  67  56 SE8       30.06F
MCCOOK         SUNNY     88  64  44 SE13      30.04F

...EASTERN NEBRASKA...

CITY           SKY/WX    TMP DP  RH WIND       PRES   REMARKS
NORFOLK        SUNNY     84  57  39 SE8       30.05F
SO SIOUX CITY  SUNNY     87  63  44 S6        30.04S
TEKAMAH        SUNNY     86  64  47 E5        30.04S
COLUMBUS       SUNNY     82  61  47 E6        30.05F
ALBION         SUNNY     82  64  54 SE7       30.06S
OMAHA EPPLEY   MOSUNNY   86  65  49 E7        30.03F
OFFUTT AFB     SUNNY     85  67  54 NE7       30.03F
MILLARD        SUNNY     86  64  47 NE3       30.03S
LINCOLN        SUNNY     86  63  45 E9        30.05S
NEBRASKA CITY  SUNNY     82  67  60 E7        30.04S
BEATRICE       SUNNY     85  61  43 E9        30.04S
FALLS CITY     SUNNY     84  68  58 NE7       30.03S

...NORTHERN KANSAS...

CITY           SKY/WX    TMP DP  RH WIND       PRES   REMARKS
GOODLAND       SUNNY     84  62  47 SE10      30.10S
HILL CITY      SUNNY     85  66  53 E10       30.04S
NORTON         CLEAR     88  57  35 E12       30.05S
SMITH CENTER   SUNNY     84  64  51 E9        30.05S
BELOIT         SUNNY     84  66  54 CALM      30.02S
HAYS           SUNNY     84  63  48 SE10      30.04S
RUSSELL        SUNNY     85  63  47 E12       30.02F
CONCORDIA      SUNNY     84  63  49 E6        30.04S
SALINA         SUNNY     85  70  60 E10       30.03S
TOPEKA         MOSUNNY   82  68  62 NE5       30.02F



USA.gov is the U.S. government's official web portal to all federal, state and local government web resources and services.